{"data":{"norad_id":63688,"intl_designator":"2025-086B","name":"HULIANWANG DIGUI-21","alt_names":[],"object_type":"PAYLOAD","status":"ACTIVE","operator":null,"country":"PRC","launch_date":"2025-04-28","launch_site_code":"WSC","launch_vehicle":null,"mission":null,"orbit_class":"UNKNOWN","rcs_meters":null,"size_class":null,"mass_kg":null,"dimensions":null,"purposes":[],"wikipedia_slug":null,"has_3d_model":false,"image_url":null,"decayed_at":null,"tle_current":{"epoch":"2026-09-21T23:03:26.316864Z","epoch_age_seconds":81558,"freshness":"FRESH","line1":"1 63688U 25086B   26264.96072126 -.00000064  00000+0 -18339-3 0  9993","line2":"2 63688  86.5010 280.6123 0001896  76.7261 283.4085 13.24411347 67674","mean_motion":13.24411347,"eccentricity":0.0001896,"inclination_deg":86.501,"raan_deg":280.6123,"arg_perigee_deg":76.7261,"mean_anomaly_deg":283.4085,"bstar":-0.00018339,"rev_number":6767,"period_min":108.72754928156,"perigee_km":1166.4863372665,"apogee_km":1169.3478009695,"semimajor_km":7546.054069118,"source":"CELESTRAK","updated_at":"2026-09-22T09:00:29.281690Z"}}}